| time (UTC) | temp C | wind direction | speed KPH | gust KPH | rain 1hr cm | rain 24hr cm | rain mn cm | humidity % | barometer mb |
| 20260509224959 | 26 | 0.0 | 0.0 | 0.00 | 0.00 | 0.00 | 35 | 1015.2 | |
| 20260509223958 | 26 | 0.0 | 0.0 | 0.00 | 0.00 | 0.00 | 39 | 1015.3 | |
| 20260509223001 | 25 | 0.0 | 0.0 | 0.00 | 0.00 | 0.00 | 40 | 1015.4 | |
| 20260509221958 | 25 | 0.0 | 0.0 | 0.00 | 0.00 | 0.00 | 37 | 1015.7 | |
| 20260509220959 | 25 | 0.0 | 0.0 | 0.00 | 0.00 | 0.00 | 40 | 1015.9 | |
| 20260509220012 | 25 | 0.0 | 0.0 | 0.00 | 0.00 | 0.00 | 41 | 1016.1 | |
| 20260509213959 | 23 | 0.0 | 0.0 | 0.00 | 0.00 | 0.00 | 43 | 1016.2 | |
| 20260509213001 | 23 | 0.0 | 0.0 | 0.00 | 0.00 | 0.00 | 42 | 1016.5 | |
| 20260509211959 | 23 | 0.0 | 0.0 | 0.00 | 0.00 | 0.00 | 45 | 1016.6 | |
| 20260509210958 | 23 | 0.0 | 0.0 | 0.00 | 0.00 | 0.00 | 46 | 1016.6 | |
| 20260509210001 | 23 | 0.0 | 0.0 | 0.00 | 0.00 | 0.00 | 46 | 1016.6 | |
| 20260509204959 | 22 | 0.0 | 0.0 | 0.00 | 0.00 | 0.00 | 47 | 1016.7 | |
| 20260509204000 | 22 | 0.0 | 0.0 | 0.00 | 0.00 | 0.00 | 52 | 1016.7 | |
| 20260509203001 | 22 | 0.0 | 0.0 | 0.00 | 0.00 | 0.00 | 54 | 1016.9 | |
| 20260509202000 | 21 | 0.0 | 0.0 | 0.00 | 0.00 | 0.00 | 53 | 1017.1 | |
| 20260509200959 | 21 | 0.0 | 0.0 | 0.00 | 0.00 | 0.00 | 56 | 1017.3 | |
| 20260509200000 | 21 | 0.0 | 0.0 | 0.00 | 0.00 | 0.00 | 56 | 1017.5 | |
| 20260509194959 | 21 | 0.0 | 0.0 | 0.00 | 0.00 | 0.00 | 58 | 1017.6 | |
| 20260509193958 | 21 | 0.0 | 0.0 | 0.00 | 0.00 | 0.00 | 60 | 1017.7 | |
| 20260509193000 | 20 | 0.0 | 0.0 | 0.00 | 0.00 | 0.00 | 60 | 1017.8 | |
| 20260509191958 | 20 | 0.0 | 0.0 | 0.00 | 0.00 | 0.00 | 61 | 1018.0 | |
| 20260509190959 | 20 | 0.0 | 0.0 | 0.00 | 0.00 | 0.00 | 64 | 1018.1 | |
| 20260509190005 | 19 | 0.0 | 0.0 | 0.00 | 0.00 | 0.00 | 65 | 1018.3 | |
| 20260509184959 | 18 | 0.0 | 0.0 | 0.00 | 0.00 | 0.00 | 67 | 1018.4 | |
| 20260509183959 | 18 | 0.0 | 0.0 | 0.00 | 0.00 | 0.00 | 69 | 1018.6 | |
| 20260509183001 | 18 | 0.0 | 0.0 | 0.00 | 0.00 | 0.00 | 69 | 1018.8 | |
| 20260509181958 | 17 | 0.0 | 0.0 | 0.00 | 0.00 | 0.00 | 70 | 1018.7 | |
| 20260509180958 | 17 | 0.0 | 0.0 | 0.00 | 0.00 | 0.00 | 72 | 1018.8 | |
| 20260509180001 | 17 | 0.0 | 0.0 | 0.00 | 0.00 | 0.00 | 73 | 1018.8 | |
| 20260509173958 | 16 | 0.0 | 0.0 | 0.00 | 0.00 | 0.00 | 76 | 1019.0 | |
| 20260509172959 | 16 | 0.0 | 0.0 | 0.00 | 0.00 | 0.00 | 75 | 1019.2 | |
| 20260509171959 | 15 | 0.0 | 0.0 | 0.00 | 0.00 | 0.00 | 77 | 1019.4 | |
| 20260509170959 | 15 | 0.0 | 0.0 | 0.00 | 0.00 | 0.00 | 79 | 1019.7 | |
| 20260509170000 | 15 | 0.0 | 0.0 | 0.00 | 0.00 | 0.00 | 80 | 1019.7 | |
| 20260509164958 | 15 | 0.0 | 0.0 | 0.00 | 0.00 | 0.00 | 81 | 1019.8 | |
| 20260509163959 | 14 | 0.0 | 0.0 | 0.00 | 0.00 | 0.00 | 82 | 1019.9 | |
| 20260509161959 | 13 | 0.0 | 0.0 | 0.00 | 0.00 | 0.00 | 84 | 1020.2 | |
| 20260509154958 | 12 | 0.0 | 0.0 | 0.00 | 0.00 | 0.00 | 86 | 1020.4 | |
| 20260509153959 | 12 | 0.0 | 0.0 | 0.00 | 0.00 | 0.00 | 87 | 1020.4 | |
| 20260509153000 | 12 | 0.0 | 0.0 | 0.00 | 0.00 | 0.00 | 88 | 1020.5 | |
| 20260509151958 | 12 | 0.0 | 0.0 | 0.00 | 0.00 | 0.00 | 89 | 1020.6 | |
| 20260509150959 | 12 | 0.0 | 0.0 | 0.00 | 0.00 | 0.00 | 90 | 1020.7 | |
| 20260509144958 | 11 | 0.0 | 0.0 | 0.00 | 0.00 | 0.00 | 91 | 1020.9 | |
| 20260509143959 | 11 | 0.0 | 0.0 | 0.00 | 0.00 | 0.00 | 92 | 1020.8 | |
| 20260509143000 | 11 | 0.0 | 0.0 | 0.00 | 0.00 | 0.00 | 93 | 1020.7 | |
| 20260509141958 | 10 | 0.0 | 0.0 | 0.00 | 0.00 | 0.00 | 92 | 1020.7 | |
| 20260509140959 | 10 | 0.0 | 0.0 | 0.00 | 0.00 | 0.00 | 92 | 1020.6 | |
| 20260509140000 | 10 | 0.0 | 0.0 | 0.00 | 0.00 | 0.00 | 91 | 1020.5 | |
| 20260509134959 | 10 | 0.0 | 0.0 | 0.00 | 0.00 | 0.00 | 90 | 1020.5 | |
| 20260509133008 | 10 | 0.0 | 0.0 | 0.00 | 0.00 | 0.00 | 90 | 1020.4 | |
| 20260509132000 | 10 | 0.0 | 0.0 | 0.00 | 0.00 | 0.00 | 89 | 1020.5 | |
| 20260509130959 | 10 | 0.0 | 0.0 | 0.00 | 0.00 | 0.00 | 89 | 1020.5 | |
| 20260509130002 | 10 | 0.0 | 0.0 | 0.00 | 0.00 | 0.00 | 89 | 1020.4 | |
| 20260509124957 | 10 | 0.0 | 0.0 | 0.00 | 0.00 | 0.00 | 88 | 1020.4 | |
| 20260509123959 | 10 | 0.0 | 0.0 | 0.00 | 0.00 | 0.00 | 88 | 1020.6 | |
| 20260509121958 | 10 | 0.0 | 0.0 | 0.00 | 0.00 | 0.00 | 88 | 1020.6 | |
| 20260509120959 | 10 | 0.0 | 0.0 | 0.00 | 0.00 | 0.00 | 88 | 1020.5 | |
| 20260509120004 | 10 | 0.0 | 0.0 | 0.00 | 0.00 | 0.00 | 88 | 1020.5 | |
| 20260509114958 | 10 | 0.0 | 0.0 | 0.00 | 0.00 | 0.00 | 87 | 1020.6 | |
| 20260509114000 | 11 | 0.0 | 0.0 | 0.00 | 0.00 | 0.00 | 87 | 1020.6 | |
| 20260509111958 | 11 | 0.0 | 0.0 | 0.00 | 0.00 | 0.00 | 87 | 1020.8 | |
| 20260509105958 | 11 | 0.0 | 0.0 | 0.00 | 0.00 | 0.00 | 87 | 1020.9 | |
| 20260509104957 | 11 | 0.0 | 0.0 | 0.00 | 0.00 | 0.00 | 86 | 1021.0 | |
| 20260509102959 | 11 | 0.0 | 0.0 | 0.00 | 0.00 | 0.00 | 85 | 1020.9 | |
| 20260509100958 | 11 | 0.0 | 0.0 | 0.00 | 0.00 | 0.00 | 85 | 1021.0 | |
| 20260509094958 | 12 | 0.0 | 0.0 | 0.00 | 0.00 | 0.00 | 85 | 1021.0 | |
| 20260509093958 | 12 | 0.0 | 0.0 | 0.00 | 0.00 | 0.00 | 84 | 1021.1 | |
| 20260509093000 | 12 | 0.0 | 0.0 | 0.00 | 0.00 | 0.00 | 84 | 1021.2 | |
| 20260509091958 | 12 | 0.0 | 0.0 | 0.00 | 0.00 | 0.00 | 83 | 1021.1 | |
| 20260509091008 | 12 | 0.0 | 0.0 | 0.00 | 0.00 | 0.00 | 83 | 1021.1 | |
| 20260509084958 | 12 | 0.0 | 0.0 | 0.00 | 0.00 | 0.00 | 81 | 1021.3 | |
| 20260509083959 | 12 | 0.0 | 0.0 | 0.00 | 0.00 | 0.00 | 81 | 1021.5 | |
| 20260509082959 | 13 | 0.0 | 0.0 | 0.00 | 0.00 | 0.00 | 81 | 1021.5 | |
| 20260509081959 | 13 | 0.0 | 0.0 | 0.00 | 0.00 | 0.00 | 80 | 1021.7 | |
| 20260509080958 | 13 | 0.0 | 0.0 | 0.00 | 0.00 | 0.00 | 80 | 1021.7 | |
| 20260509080005 | 13 | 0.0 | 0.0 | 0.00 | 0.00 | 0.00 | 80 | 1021.8 | |
| 20260509072000 | 13 | 0.0 | 0.0 | 0.00 | 0.00 | 0.00 | 78 | 1022.0 | |
| 20260509071000 | 13 | 0.0 | 0.0 | 0.00 | 0.00 | 0.00 | 77 | 1021.9 | |
| 20260509065000 | 14 | 0.0 | 0.0 | 0.00 | 0.00 | 0.00 | 76 | 1022.0 | |
| 20260509064001 | 15 | 0.0 | 0.0 | 0.00 | 0.00 | 0.00 | 75 | 1022.0 | |
| 20260509063002 | 15 | 0.0 | 0.0 | 0.00 | 0.00 | 0.00 | 75 | 1021.8 | |
| 20260509062001 | 15 | 0.0 | 0.0 | 0.00 | 0.00 | 0.00 | 74 | 1021.9 | |
| 20260509061001 | 15 | 0.0 | 0.0 | 0.00 | 0.00 | 0.00 | 73 | 1021.8 | |
| 20260509060005 | 15 | 0.0 | 0.0 | 0.00 | 0.00 | 0.00 | 73 | 1021.7 | |
| 20260509055000 | 15 | 0.0 | 0.0 | 0.00 | 0.00 | 0.00 | 72 | 1021.8 | |
| 20260509054001 | 16 | 0.0 | 0.0 | 0.00 | 0.00 | 0.00 | 72 | 1021.7 | |
| 20260509053001 | 16 | 0.0 | 0.0 | 0.00 | 0.00 | 0.00 | 71 | 1021.7 | |
| 20260509052001 | 16 | 0.0 | 0.0 | 0.00 | 0.00 | 0.00 | 70 | 1021.6 | |
| 20260509051001 | 16 | 0.0 | 0.0 | 0.00 | 0.00 | 0.00 | 70 | 1021.5 | |
| 20260509045000 | 16 | 0.0 | 0.0 | 0.00 | 0.00 | 0.00 | 68 | 1021.3 | |
| 20260509044000 | 16 | 0.0 | 0.0 | 0.00 | 0.00 | 0.00 | 68 | 1021.2 | |
| 20260509043001 | 17 | 0.0 | 0.0 | 0.00 | 0.00 | 0.00 | 67 | 1021.1 | |
| 20260509042000 | 17 | 0.0 | 0.0 | 0.00 | 0.00 | 0.00 | 67 | 1021.0 | |
| 20260509041000 | 17 | 0.0 | 0.0 | 0.00 | 0.00 | 0.00 | 67 | 1020.9 | |
| 20260509040000 | 17 | 0.0 | 0.0 | 0.00 | 0.00 | 0.00 | 66 | 1020.9 | |
| 20260509035000 | 17 | 0.0 | 0.0 | 0.00 | 0.00 | 0.00 | 65 | 1020.8 | |
| 20260509033959 | 18 | 0.0 | 0.0 | 0.00 | 0.00 | 0.00 | 64 | 1020.6 | |
| 20260509033000 | 18 | 0.0 | 0.0 | 0.00 | 0.00 | 0.00 | 63 | 1020.5 | |
| 20260509031959 | 18 | 0.0 | 0.0 | 0.00 | 0.00 | 0.00 | 62 | 1020.4 | |
| 20260509030959 | 18 | 0.0 | 0.0 | 0.00 | 0.00 | 0.00 | 61 | 1020.4 | |
| 20260509030000 | 18 | 0.0 | 0.0 | 0.00 | 0.00 | 0.00 | 61 | 1020.3 | |
| 20260509024959 | 18 | 0.0 | 0.0 | 0.00 | 0.00 | 0.00 | 59 | 1020.3 | |
| 20260509023001 | 18 | 0.0 | 0.0 | 0.00 | 0.00 | 0.00 | 58 | 1020.0 | |
| 20260509022000 | 19 | 0.0 | 0.0 | 0.00 | 0.00 | 0.00 | 58 | 1020.1 | |
| 20260509020958 | 19 | 0.0 | 0.0 | 0.00 | 0.00 | 0.00 | 57 | 1020.1 | |
| 20260509020000 | 20 | 0.0 | 0.0 | 0.00 | 0.00 | 0.00 | 56 | 1020.1 | |
| 20260509014959 | 20 | 0.0 | 0.0 | 0.00 | 0.00 | 0.00 | 55 | 1020.0 | |
| 20260509013959 | 20 | 0.0 | 0.0 | 0.00 | 0.00 | 0.00 | 54 | 1020.0 | |
| 20260509013000 | 20 | 0.0 | 0.0 | 0.00 | 0.00 | 0.00 | 54 | 1020.1 | |
| 20260509010012 | 21 | 0.0 | 0.0 | 0.00 | 0.00 | 0.00 | 51 | 1020.2 | |
| 20260509004959 | 21 | 0.0 | 0.0 | 0.00 | 0.00 | 0.00 | 50 | 1020.1 | |
| 20260509003958 | 21 | 0.0 | 0.0 | 0.00 | 0.00 | 0.00 | 50 | 1020.2 | |
| 20260509003000 | 21 | 0.0 | 0.0 | 0.00 | 0.00 | 0.00 | 50 | 1020.3 | |
| 20260509000000 | 21 | 0.0 | 0.0 | 0.00 | 0.00 | 0.00 | 52 | 1020.3 | |
| 20260508234959 | 21 | 0.0 | 0.0 | 0.00 | 0.00 | 0.00 | 50 | 1020.5 | |
| 20260508233959 | 21 | 0.0 | 0.0 | 0.00 | 0.00 | 0.00 | 51 | 1020.4 | |
| 20260508233000 | 21 | 0.0 | 0.0 | 0.00 | 0.00 | 0.00 | 49 | 1020.4 | |
| 20260508231959 | 21 | 0.0 | 0.0 | 0.00 | 0.00 | 0.00 | 48 | 1020.4 | |
| 20260508230959 | 21 | 0.0 | 0.0 | 0.00 | 0.00 | 0.00 | 52 | 1020.4 |